STARLINK-5553 (56333 NORAD) Tracking and Keplerian Element Data

This shows tracking and keplerian element data for the satellite.

Feedback or suggestion? Click here.




ElementValue
Catalog56333
NameSTARLINK-5553
Epoch Orbit184
Epoch Day127.25001157
Epoch Year2023
RAAN126.7446
Inclination97.6637
Eccentricity0.000145
Argument of Perigee105.5452
Mean Anonmoly192.8812
Mean Motion15.67606705
Decay Rate-0.00778012
L11 56333U 23058S 23127.25001157 -.00778012 00000+0 -78560-2 0 9998
L22 56333 97.6637 126.7446 0001450 105.5452 192.8812 15.67606705 1849



Live tracking and technical data element details for STARLINK-5553 (NORAD 56333). STARLINK-5553 can be tracked NOW for your location showing map with azimuth and elevation plus other details from your city location.







IsCatalogInMostPopularTable: catalog: 56333, numindb: 2
Update: records affected: 1



GetName: 56333 STARLINK-5553

Hit Count: updated at: Sat, 03 Jun 2023 18:48:55 GMT